Regional Weather Roundup
Issued by NWS Northern Indiana

Home | Current Version | Previous Version | Text Only | Print | Product List | Glossary On
Versions: 1 2 3 4 5 6 7 8 9 10 11 12 13 14 15 16 17 18 19 20 21 22 23 24 25 26 27 28 29 30 31 32 33 34 35 36 37 38 39 40 41 42 43 44 45 46 47 48 49 50
958
ASUS43 KIWX 111510
RWRIWX

KIWX WEATHER ROUNDUP
NATIONAL WEATHER SERVICE NORTHERN INDIANA
1000 AM EST SUN DEC 11 2016

NOTE: "FAIR" INDICATES FEW OR NO CLOUDS BELOW 12,000 FEET WITH NO
SIGNIFICANT WEATHER AND/OR OBSTRUCTIONS TO VISIBILITY.

* THESE STATIONS ARE NOT UNDER NWS QUALITY CONTROL. THEY ALSO MAY NOT
  REPORT WEATHER SUCH AS PRECIPITATION OR FOG.

INZ001>027-111600-
NORTHERN INDIANA

CITY           SKY/WX    TMP DP  RH WIND       PRES   REMARKS
GARY*          CLOUDY    30  27  86 SE14      30.04F WCI  20
VALPARAISO     LGT SNOW  28  24  85 MISG      30.06F FOG
MICHIGAN CITY* LGT SNOW  28  27  93 S8G18     30.06F WCI  20
LAPORTE*       LGT SNOW  26  24  91 SE12      30.08F WCI  16
KNOX*          CLOUDY    28  14  54 SE12      30.08F WCI  18
SOUTH BEND     SNOW      25  24  96 SE15      30.09F VSB 1/4 WCI  13
GOSHEN         SNOW      26  22  84 SE14      30.10F VSB 1/4 WCI  14
MONTICELLO*    LGT SNOW  28  24  84 SE8       30.07S VSB 3/4 WCI  20
LOGANSPORT*    LGT SNOW  28  27  93 SE14      30.10F VSB 1   WCI  17
ROCHESTER*     LGT SNOW  30  30 100 SE14G20   30.09F VSB 3/4 WCI  20
WARSAW*        LGT SNOW  27  23  86 SE7       30.10F VSB 3/4 WCI  19
ANGOLA*        CLOUDY    25  23  93 SE12      30.13F VSB 3/4 WCI  14
FORT WAYNE     LGT SNOW  27  24  89 SE14      30.14F VSB 1   WCI  16
HUNTINGTON*    LGT SNOW  27  25  93 SE13      30.13F WCI  16
PERU/GRISSOM   LGT SNOW  27  27 100 S15       30.08F FOG     WCI  15
MARION*        LGT SNOW  28  24  86 S14       30.13F VSB 3/4 WCI  17

$$
INZ028>050-111600-
CENTRAL INDIANA

CITY           SKY/WX    TMP DP  RH WIND       PRES   REMARKS
LAFAYETTE      CLOUDY    30  27  88 S10       30.07F WCI  21
KOKOMO*        LGT SNOW  28  27  93 SE16      30.10F FOG     WCI  17
MUNCIE*        CLOUDY    31  23  72 S9        30.14F WCI  23
INDIANAPOLIS   CLOUDY    32  19  58 S9        30.11F WCI  24

$$
MIZ043>046-050>051-056>058-064>065-071>073-077>080-111600-
SOUTHWEST LOWER MICHIGAN

CITY           SKY/WX    TMP DP  RH WIND       PRES   REMARKS
BATTLE CREEK   LGT SNOW  25  23  92 S13       30.11F VSB 3/4 WCI  14
BENTON HARBOR  LGT SNOW  27  23  85 SE13      30.07F VSB 3/4 WCI  16
COLDWATER*     SNOW      25  24  93 SE10      30.13S VSB 1/2 WCI  15
HILLSDALE*     SNOW      23  21  93 SE12G17   30.13F VSB 1/2 WCI  12
HOLLAND        LGT SNOW  26  22  84 SE10      30.08F FOG     WCI  16
GRAND RAPIDS   LGT SNOW  24  20  84 SE9       30.12S FOG     WCI  14
KALAMAZOO      LGT SNOW  26  21  81 SE7       30.11S VSB 3/4 WCI  18
STURGIS*       SNOW      25  23  93 SE10      30.11S VSB 1/2 WCI  14
THREE RIVERS*  LGT SNOW  25  23  91 SE8       30.12S VSB 3/4 WCI  16

$$
OHZ001>008-015>018-024>025-111600-
NORTHWEST OHIO

CITY           SKY/WX    TMP DP  RH WIND       PRES   REMARKS
WAUSEON*       LGT SNOW  27  25  93 S17       30.18F VSB 3/4 WCI  14
DEFIANCE       LGT SNOW  27  22  81 S10       30.19F VSB 3/4 WCI  17
FINDLAY        LGT SNOW  27  22  81 SE15      30.22F VSB 3/4 WCI  15
TOLEDO EXPRESS LGT SNOW  25  24  96 SE8G20    30.21F VSB 3/4 WCI  16
TOLEDO METCALF CLOUDY    27  23  85 S14       30.24F FOG     WCI  16
LIMA           LGT SNOW  26  22  84 SE17G24   30.20F VSB 3/4 WCI  13

$$
AND FOR LAKE MICHIGAN COASTAL AND OPEN LAKE BUOY OBSERVATIONS

STATION/POSITION TEMP    WIND        PRES    VSBY  WAVE
                 AIR SEA DIR/SP/G                  HT/PER
                 (F)     (DEG/KT/KT) (MB)    (MI)  (FT/S)
CALUMET HARBOR    28     140/ 11/ 13 1016.2F
BURNS HARBOR      27     150/  9/ 19 1018.3F
SAINT JOSEPH      27     150/  2/  7 1018.6

$$
&&




USA.gov is the U.S. government's official web portal to all federal, state and local government web resources and services.